Time,TemperatureF,DewpointF,PressureIn,WindDirection,WindDirectionDegrees,WindSpeedMPH,WindSpeedGustMPH,Humidity,HourlyPrecipIn,Conditions,Clouds,dailyrainin,SoftwareType,DateUTC
2013-10-09 00:01:00,54.7,49.3,30.05,East,90,0.0,0.0,82,0.00,,,0.00,WUHU21623XXSP,2013-10-09 04:01:00,
2013-10-09 00:02:00,54.5,49.1,30.05,East,90,0.0,0.0,82,0.00,,,0.00,WUHU21623XXSP,2013-10-09 04:02:00,
2013-10-09 00:07:00,54.3,48.9,30.05,ESE,115,1.0,1.1,82,0.00,,,0.00,WUHU21623XXSP,2013-10-09 04:07:00,
2013-10-09 00:12:00,54.3,48.9,30.04,SSW,202,0.0,1.1,82,0.00,,,0.00,WUHU21623XXSP,2013-10-09 04:12:00,
2013-10-09 00:17:00,54.3,48.9,30.04,SE,135,0.0,0.0,82,0.00,,,0.00,WUHU21623XXSP,2013-10-09 04:17:00,
2013-10-09 00:22:00,54.1,48.8,30.04,SE,135,0.0,0.0,82,0.00,,,0.00,WUHU21623XXSP,2013-10-09 04:22:00,
2013-10-09 00:27:00,54.1,48.8,30.04,SE,135,0.0,0.0,82,0.00,,,0.00,WUHU21623XXSP,2013-10-09 04:27:00,
2013-10-09 00:32:00,54.0,48.6,30.04,SE,135,0.0,0.0,82,0.00,,,0.00,WUHU21623XXSP,2013-10-09 04:32:00,
2013-10-09 00:37:00,53.8,48.4,30.04,NNW,337,0.0,0.0,82,0.00,,,0.00,WUHU21623XXSP,2013-10-09 04:37:00,
2013-10-09 00:42:00,53.8,48.4,30.04,NNW,337,0.0,0.0,82,0.00,,,0.00,WUHU21623XXSP,2013-10-09 04:42:00,
2013-10-09 00:47:00,53.4,48.1,30.04,SE,135,0.0,0.0,82,0.00,,,0.00,WUHU21623XXSP,2013-10-09 04:47:00,
2013-10-09 00:52:00,53.4,48.1,30.04,South,180,0.0,0.0,82,0.00,,,0.00,WUHU21623XXSP,2013-10-09 04:52:00,
2013-10-09 00:57:00,53.4,48.1,30.04,NW,315,0.0,0.0,82,0.00,,,0.00,WUHU21623XXSP,2013-10-09 04:57:00,
2013-10-09 01:02:00,53.4,48.1,30.04,NW,315,0.0,0.0,82,0.00,,,0.00,WUHU21623XXSP,2013-10-09 05:02:00,
2013-10-09 01:07:00,53.2,48.2,30.04,NE,45,0.0,0.0,83,0.00,,,0.00,WUHU21623XXSP,2013-10-09 05:07:00,
2013-10-09 01:12:00,53.2,48.2,30.04,NE,45,0.0,0.0,83,0.00,,,0.00,WUHU21623XXSP,2013-10-09 05:12:00,
2013-10-09 01:17:00,53.1,48.0,30.04,NE,45,0.0,0.0,83,0.00,,,0.00,WUHU21623XXSP,2013-10-09 05:17:00,
2013-10-09 01:22:00,52.9,47.9,30.04,NE,45,0.0,0.0,83,0.00,,,0.00,WUHU21623XXSP,2013-10-09 05:22:00,
2013-10-09 01:27:00,52.7,47.7,30.04,NE,45,0.0,0.0,83,0.00,,,0.00,WUHU21623XXSP,2013-10-09 05:27:00,
2013-10-09 01:32:00,52.5,47.5,30.04,NE,45,0.0,0.0,83,0.00,,,0.00,WUHU21623XXSP,2013-10-09 05:32:00,
2013-10-09 01:37:00,52.3,47.3,30.04,SE,135,0.0,0.0,83,0.00,,,0.00,WUHU21623XXSP,2013-10-09 05:37:00,
2013-10-09 01:42:00,52.3,47.3,30.04,ESE,112,0.0,0.0,83,0.00,,,0.00,WUHU21623XXSP,2013-10-09 05:42:00,
2013-10-09 01:47:00,52.3,47.3,30.04,SW,225,0.0,0.0,83,0.00,,,0.00,WUHU21623XXSP,2013-10-09 05:47:00,
2013-10-09 01:52:00,52.2,47.4,30.04,SSW,202,0.0,0.0,84,0.00,,,0.00,WUHU21623XXSP,2013-10-09 05:52:00,
2013-10-09 01:57:00,52.2,47.4,30.04,SSW,202,0.0,0.0,84,0.00,,,0.00,WUHU21623XXSP,2013-10-09 05:57:00,
2013-10-09 02:02:00,52.2,47.4,30.04,South,180,0.0,0.0,84,0.00,,,0.00,WUHU21623XXSP,2013-10-09 06:02:00,
2013-10-09 02:07:00,52.2,47.4,30.04,NNE,22,0.0,0.0,84,0.00,,,0.00,WUHU21623XXSP,2013-10-09 06:07:00,
2013-10-09 02:12:00,52.0,47.3,30.04,NNE,22,0.0,0.0,84,0.00,,,0.00,WUHU21623XXSP,2013-10-09 06:12:00,
2013-10-09 02:17:00,52.0,47.3,30.04,West,270,0.0,0.0,84,0.00,,,0.00,WUHU21623XXSP,2013-10-09 06:17:00,
2013-10-09 02:22:00,51.8,47.1,30.04,NNW,337,0.0,0.0,84,0.00,,,0.00,WUHU21623XXSP,2013-10-09 06:22:00,
2013-10-09 02:27:00,51.8,47.1,30.04,NW,315,0.0,0.0,84,0.00,,,0.00,WUHU21623XXSP,2013-10-09 06:27:00,
2013-10-09 02:32:00,51.8,47.1,30.05,SSW,202,0.0,0.9,84,0.00,,,0.00,WUHU21623XXSP,2013-10-09 06:32:00,
2013-10-09 02:37:00,51.6,46.6,30.04,WSW,247,0.0,0.9,83,0.00,,,0.00,WUHU21623XXSP,2013-10-09 06:37:00,
2013-10-09 02:42:00,51.6,46.6,30.04,WNW,292,0.0,0.9,83,0.00,,,0.00,WUHU21623XXSP,2013-10-09 06:42:00,
2013-10-09 02:47:00,51.8,46.8,30.04,SW,225,0.0,2.0,83,0.00,,,0.00,WUHU21623XXSP,2013-10-09 06:47:00,
2013-10-09 02:52:00,51.8,46.8,30.04,SW,225,0.0,2.0,83,0.00,,,0.00,WUHU21623XXSP,2013-10-09 06:52:00,
2013-10-09 02:57:00,52.0,47.0,30.04,South,180,0.9,1.8,83,0.00,,,0.00,WUHU21623XXSP,2013-10-09 06:57:00,
2013-10-09 03:02:00,52.0,47.0,30.04,SSW,202,0.0,1.8,83,0.00,,,0.00,WUHU21623XXSP,2013-10-09 07:02:00,
2013-10-09 03:07:00,52.0,47.0,30.05,SSW,211,0.9,1.1,83,0.00,,,0.00,WUHU21623XXSP,2013-10-09 07:07:00,
2013-10-09 03:12:00,52.0,47.0,30.05,SSE,157,0.9,1.3,83,0.00,,,0.00,WUHU21623XXSP,2013-10-09 07:12:00,
2013-10-09 03:17:00,51.8,46.5,30.05,West,270,0.0,1.3,82,0.00,,,0.00,WUHU21623XXSP,2013-10-09 07:17:00,
2013-10-09 03:22:00,51.8,46.5,30.05,West,270,0.0,0.0,82,0.00,,,0.00,WUHU21623XXSP,2013-10-09 07:22:00,
2013-10-09 03:27:00,51.8,46.2,30.05,SE,140,1.5,1.8,81,0.00,,,0.00,WUHU21623XXSP,2013-10-09 07:27:00,
2013-10-09 03:32:00,51.8,46.2,30.05,West,270,0.0,1.8,81,0.00,,,0.00,WUHU21623XXSP,2013-10-09 07:32:00,
2013-10-09 03:37:00,51.8,46.2,30.05,ENE,67,0.0,2.2,81,0.00,,,0.00,WUHU21623XXSP,2013-10-09 07:37:00,
2013-10-09 03:42:00,51.8,46.2,30.05,SW,225,0.0,2.2,81,0.00,,,0.00,WUHU21623XXSP,2013-10-09 07:42:00,
2013-10-09 03:50:00,52.0,46.3,30.05,West,270,0.0,0.0,81,0.00,,,0.00,WUHU21623XXSP,2013-10-09 07:50:00,
2013-10-09 03:55:00,52.0,45.7,30.05,SSW,192,1.3,2.0,79,0.00,,,0.00,WUHU21623XXSP,2013-10-09 07:55:00,
2013-10-09 04:00:00,52.0,45.3,30.05,SW,225,0.9,2.0,78,0.00,,,0.00,WUHU21623XXSP,2013-10-09 08:00:00,
2013-10-09 04:05:00,52.2,45.5,30.05,SE,135,0.0,1.6,78,0.00,,,0.00,WUHU21623XXSP,2013-10-09 08:05:00,
2013-10-09 04:10:00,52.2,45.9,30.05,SW,225,0.0,1.1,79,0.00,,,0.00,WUHU21623XXSP,2013-10-09 08:10:00,
2013-10-09 04:15:00,52.2,45.9,30.05,West,270,2.0,2.5,79,0.00,,,0.00,WUHU21623XXSP,2013-10-09 08:15:00,
2013-10-09 04:20:00,52.2,45.5,30.05,WSW,247,0.0,2.5,78,0.00,,,0.00,WUHU21623XXSP,2013-10-09 08:20:00,
2013-10-09 04:25:00,52.2,45.9,30.05,SSW,202,0.9,0.9,79,0.00,,,0.00,WUHU21623XXSP,2013-10-09 08:25:00,
2013-10-09 04:30:00,52.2,45.9,30.05,SW,225,0.0,1.6,79,0.00,,,0.00,WUHU21623XXSP,2013-10-09 08:30:00,
2013-10-09 04:35:00,52.0,45.7,30.05,SSW,202,0.9,1.6,79,0.00,,,0.00,WUHU21623XXSP,2013-10-09 08:35:00,
2013-10-09 04:40:00,52.0,45.7,30.05,SSW,202,1.0,1.3,79,0.00,,,0.00,WUHU21623XXSP,2013-10-09 08:40:00,
2013-10-09 04:45:00,52.0,45.3,30.06,SW,225,0.0,1.3,78,0.00,,,0.00,WUHU21623XXSP,2013-10-09 08:45:00,
2013-10-09 04:50:00,51.8,45.2,30.06,SE,135,0.0,2.5,78,0.00,,,0.00,WUHU21623XXSP,2013-10-09 08:50:00,
2013-10-09 04:55:00,51.8,45.5,30.06,NNE,22,0.0,2.5,79,0.00,,,0.00,WUHU21623XXSP,2013-10-09 08:55:00,
2013-10-09 05:00:00,51.6,45.3,30.07,SE,135,0.0,1.8,79,0.00,,,0.00,WUHU21623XXSP,2013-10-09 09:00:00,
2013-10-09 05:05:00,51.6,45.3,30.07,South,180,0.0,1.8,79,0.00,,,0.00,WUHU21623XXSP,2013-10-09 09:05:00,
2013-10-09 05:10:00,51.4,45.2,30.07,SW,225,0.0,1.1,79,0.00,,,0.00,WUHU21623XXSP,2013-10-09 09:10:00,
2013-10-09 05:15:00,51.4,45.2,30.07,West,270,0.0,1.1,79,0.00,,,0.00,WUHU21623XXSP,2013-10-09 09:15:00,
2013-10-09 05:20:00,51.4,45.2,30.07,WNW,292,0.0,0.0,79,0.00,,,0.00,WUHU21623XXSP,2013-10-09 09:20:00,
2013-10-09 05:25:00,51.4,45.2,30.07,ESE,112,0.0,2.5,79,0.00,,,0.00,WUHU21623XXSP,2013-10-09 09:25:00,
2013-10-09 05:30:00,51.3,45.0,30.07,SSW,202,0.0,2.5,79,0.00,,,0.00,WUHU21623XXSP,2013-10-09 09:30:00,
2013-10-09 05:35:00,51.3,45.0,30.07,SSW,202,0.0,0.9,79,0.00,,,0.00,WUHU21623XXSP,2013-10-09 09:35:00,
2013-10-09 05:40:00,51.1,44.8,30.07,West,270,0.0,0.9,79,0.00,,,0.00,WUHU21623XXSP,2013-10-09 09:40:00,
2013-10-09 05:45:00,51.1,44.8,30.07,SW,225,0.7,0.7,79,0.00,,,0.00,WUHU21623XXSP,2013-10-09 09:45:00,
2013-10-09 05:50:00,50.9,44.6,30.07,SW,225,0.0,2.0,79,0.00,,,0.00,WUHU21623XXSP,2013-10-09 09:50:00,
2013-10-09 05:55:00,50.9,44.6,30.08,East,90,0.0,2.0,79,0.00,,,0.00,WUHU21623XXSP,2013-10-09 09:55:00,
2013-10-09 06:00:00,50.7,44.4,30.08,WNW,292,0.0,0.0,79,0.00,,,0.00,WUHU21623XXSP,2013-10-09 10:00:00,
2013-10-09 06:05:00,50.5,44.3,30.08,WSW,247,1.1,1.1,79,0.00,,,0.00,WUHU21623XXSP,2013-10-09 10:05:00,
2013-10-09 06:10:00,50.4,44.4,30.08,NNW,337,0.0,1.1,80,0.00,,,0.00,WUHU21623XXSP,2013-10-09 10:10:00,
2013-10-09 06:15:00,50.2,44.2,30.08,ENE,67,1.1,1.1,80,0.00,,,0.00,WUHU21623XXSP,2013-10-09 10:15:00,
2013-10-09 06:20:00,49.8,43.9,30.08,SSE,157,0.0,1.1,80,0.00,,,0.00,WUHU21623XXSP,2013-10-09 10:20:00,
2013-10-09 06:25:00,49.6,43.7,30.08,NNE,22,0.0,0.0,80,0.00,,,0.00,WUHU21623XXSP,2013-10-09 10:25:00,
2013-10-09 06:30:00,49.5,43.5,30.08,NNE,22,0.0,0.0,80,0.00,,,0.00,WUHU21623XXSP,2013-10-09 10:30:00,
2013-10-09 06:35:00,49.3,43.6,30.08,NNE,22,0.0,0.0,81,0.00,,,0.00,WUHU21623XXSP,2013-10-09 10:35:00,
2013-10-09 06:40:00,49.1,43.5,30.08,NNE,22,0.0,0.0,81,0.00,,,0.00,WUHU21623XXSP,2013-10-09 10:40:00,
2013-10-09 06:45:00,48.9,43.3,30.08,NNE,22,0.0,0.0,81,0.00,,,0.00,WUHU21623XXSP,2013-10-09 10:45:00,
2013-10-09 06:50:00,48.7,43.1,30.09,NNE,22,0.0,0.0,81,0.00,,,0.00,WUHU21623XXSP,2013-10-09 10:50:00,
2013-10-09 06:55:00,48.7,43.1,30.09,NNE,22,0.0,0.0,81,0.00,,,0.00,WUHU21623XXSP,2013-10-09 10:55:00,
2013-10-09 07:00:00,48.7,43.4,30.09,NNE,22,0.0,0.0,82,0.00,,,0.00,WUHU21623XXSP,2013-10-09 11:00:00,
2013-10-09 07:05:00,48.6,43.3,30.09,NNE,22,0.0,0.0,82,0.00,,,0.00,WUHU21623XXSP,2013-10-09 11:05:00,
2013-10-09 07:10:00,48.4,43.1,30.09,NNE,22,0.0,0.0,82,0.00,,,0.00,WUHU21623XXSP,2013-10-09 11:10:00,
2013-10-09 07:15:00,48.4,43.1,30.09,NNE,22,0.0,0.0,82,0.00,,,0.00,WUHU21623XXSP,2013-10-09 11:15:00,
2013-10-09 07:20:00,48.2,42.9,30.09,NNE,22,0.0,0.0,82,0.00,,,0.00,WUHU21623XXSP,2013-10-09 11:20:00,
2013-10-09 07:25:00,48.0,42.7,30.09,NNE,22,0.0,0.0,82,0.00,,,0.00,WUHU21623XXSP,2013-10-09 11:25:00,
2013-10-09 07:30:00,47.8,42.6,30.10,NNE,22,0.0,0.0,82,0.00,,,0.00,WUHU21623XXSP,2013-10-09 11:30:00,
2013-10-09 07:35:00,47.7,42.4,30.10,NNE,22,0.0,0.0,82,0.00,,,0.00,WUHU21623XXSP,2013-10-09 11:35:00,
2013-10-09 07:40:00,47.5,42.2,30.10,NNE,22,0.0,0.0,82,0.00,,,0.00,WUHU21623XXSP,2013-10-09 11:40:00,
2013-10-09 07:45:00,47.1,41.9,30.10,NNE,22,0.0,0.0,82,0.00,,,0.00,WUHU21623XXSP,2013-10-09 11:45:00,
2013-10-09 07:50:00,47.1,41.9,30.10,NNE,22,0.0,0.0,82,0.00,,,0.00,WUHU21623XXSP,2013-10-09 11:50:00,
2013-10-09 07:55:00,46.9,42.0,30.10,NNE,22,0.0,0.0,83,0.00,,,0.00,WUHU21623XXSP,2013-10-09 11:55:00,
2013-10-09 08:00:00,46.8,41.9,30.10,NNE,22,0.0,0.0,83,0.00,,,0.00,WUHU21623XXSP,2013-10-09 12:00:00,
2013-10-09 08:03:00,46.6,41.7,30.10,NNE,22,0.0,0.0,83,0.00,,,0.00,WUHU21623XXSP,2013-10-09 12:03:00,
2013-10-09 08:08:00,46.6,41.7,30.10,NNE,22,0.0,0.0,83,0.00,,,0.00,WUHU21623XXSP,2013-10-09 12:08:00,
2013-10-09 08:13:00,46.2,41.4,30.11,NNE,22,0.0,0.0,83,0.00,,,0.00,WUHU21623XXSP,2013-10-09 12:13:00,
2013-10-09 08:18:00,46.2,41.4,30.10,NNE,22,0.0,0.0,83,0.00,,,0.00,WUHU21623XXSP,2013-10-09 12:18:00,
2013-10-09 08:23:00,46.2,41.4,30.11,NNE,22,0.0,0.0,83,0.00,,,0.00,WUHU21623XXSP,2013-10-09 12:23:00,
2013-10-09 08:28:00,46.0,41.5,30.10,NNE,22,0.0,0.0,84,0.00,,,0.00,WUHU21623XXSP,2013-10-09 12:28:00,
2013-10-09 08:33:00,46.0,41.5,30.11,NNE,22,0.0,0.0,84,0.00,,,0.00,WUHU21623XXSP,2013-10-09 12:33:00,
2013-10-09 08:38:00,45.7,41.1,30.11,NNE,22,0.0,0.0,84,0.00,,,0.00,WUHU21623XXSP,2013-10-09 12:38:00,
2013-10-09 08:43:00,45.7,41.1,30.11,NNE,22,0.0,0.0,84,0.00,,,0.00,WUHU21623XXSP,2013-10-09 12:43:00,
2013-10-09 08:48:00,45.7,41.1,30.11,NNE,22,0.0,0.0,84,0.00,,,0.00,WUHU21623XXSP,2013-10-09 12:48:00,
2013-10-09 08:53:00,45.7,41.5,30.11,NNE,22,0.0,0.0,85,0.00,,,0.00,WUHU21623XXSP,2013-10-09 12:53:00,
2013-10-09 08:58:00,45.7,41.5,30.11,NNE,22,0.0,0.0,85,0.00,,,0.00,WUHU21623XXSP,2013-10-09 12:58:00,
2013-10-09 09:03:00,45.9,41.6,30.11,NNE,22,0.0,0.0,85,0.00,,,0.00,WUHU21623XXSP,2013-10-09 13:03:00,
2013-10-09 09:08:00,46.0,41.8,30.11,NNE,22,0.0,0.0,85,0.00,,,0.00,WUHU21623XXSP,2013-10-09 13:08:00,
2013-10-09 09:13:00,46.0,42.1,30.11,NNE,22,0.0,0.0,86,0.00,,,0.00,WUHU21623XXSP,2013-10-09 13:13:00,
2013-10-09 09:18:00,46.2,42.3,30.12,NNE,22,0.0,0.0,86,0.00,,,0.00,WUHU21623XXSP,2013-10-09 13:18:00,
2013-10-09 09:23:00,46.6,42.6,30.12,NNE,22,0.0,0.0,86,0.00,,,0.00,WUHU21623XXSP,2013-10-09 13:23:00,
2013-10-09 09:28:00,46.8,42.8,30.12,NNE,22,0.0,0.0,86,0.00,,,0.00,WUHU21623XXSP,2013-10-09 13:28:00,
2013-10-09 09:33:00,47.1,43.2,30.12,NNE,22,0.0,0.0,86,0.00,,,0.00,WUHU21623XXSP,2013-10-09 13:33:00,
2013-10-09 09:38:00,47.5,43.5,30.12,NNE,22,0.0,0.0,86,0.00,,,0.00,WUHU21623XXSP,2013-10-09 13:38:00,
2013-10-09 09:43:00,47.8,44.2,30.12,NNE,22,0.0,0.0,87,0.00,,,0.00,WUHU21623XXSP,2013-10-09 13:43:00,
2013-10-09 09:48:00,48.4,44.5,30.12,NNE,22,0.0,0.0,87,0.00,,,0.00,WUHU21623XXSP,2013-10-09 13:48:00,
2013-10-09 09:53:00,48.7,45.0,30.12,NNE,22,0.0,0.0,87,0.00,,,0.00,WUHU21623XXSP,2013-10-09 13:53:00,
2013-10-09 09:58:00,49.3,45.5,30.12,NNE,22,0.0,0.0,87,0.00,,,0.00,WUHU21623XXSP,2013-10-09 13:58:00,
2013-10-09 10:03:00,49.8,46.3,30.12,SE,135,0.9,0.9,88,0.00,,,0.00,WUHU21623XXSP,2013-10-09 14:03:00,
2013-10-09 10:08:00,50.4,46.6,30.12,SE,133,1.4,1.6,87,0.00,,,0.00,WUHU21623XXSP,2013-10-09 14:08:00,
2013-10-09 10:13:00,50.9,47.1,30.12,South,180,1.4,1.6,87,0.00,,,0.00,WUHU21623XXSP,2013-10-09 14:13:00,
2013-10-09 10:18:00,51.6,47.5,30.12,SE,135,0.9,2.2,86,0.00,,,0.00,WUHU21623XXSP,2013-10-09 14:18:00,
2013-10-09 10:23:00,52.3,47.6,30.12,SE,135,0.0,2.5,84,0.00,,,0.00,WUHU21623XXSP,2013-10-09 14:23:00,
2013-10-09 10:28:00,53.2,48.5,30.12,SSW,207,1.0,2.5,84,0.00,,,0.00,WUHU21623XXSP,2013-10-09 14:28:00,
2013-10-09 10:33:00,54.0,48.9,30.12,SSW,202,2.0,2.0,83,0.00,,,0.00,WUHU21623XXSP,2013-10-09 14:33:00,
2013-10-09 10:38:00,54.7,49.3,30.12,NW,315,0.0,2.0,82,0.00,,,0.00,WUHU21623XXSP,2013-10-09 14:38:00,
2013-10-09 10:43:00,55.2,49.1,30.11,ESE,109,1.1,1.3,80,0.00,,,0.00,WUHU21623XXSP,2013-10-09 14:43:00,
2013-10-09 10:47:00,55.9,49.5,30.11,SSE,168,1.1,1.8,79,0.00,,,0.00,WUHU21623XXSP,2013-10-09 14:47:00,
2013-10-09 10:52:00,56.8,50.4,30.11,SE,135,2.2,2.2,79,0.00,,,0.00,WUHU21623XXSP,2013-10-09 14:52:00,
2013-10-09 10:57:00,57.4,49.8,30.11,SE,124,1.0,2.2,76,0.00,,,0.00,WUHU21623XXSP,2013-10-09 14:57:00,
2013-10-09 11:02:00,58.1,50.5,30.11,South,180,1.3,1.6,76,0.00,,,0.00,WUHU21623XXSP,2013-10-09 15:02:00,
2013-10-09 11:07:00,58.8,50.9,30.11,ENE,67,0.0,1.6,75,0.00,,,0.00,WUHU21623XXSP,2013-10-09 15:07:00,
2013-10-09 11:12:00,59.4,51.4,30.11,SSW,202,2.2,3.1,75,0.00,,,0.00,WUHU21623XXSP,2013-10-09 15:12:00,
2013-10-09 11:17:00,60.1,51.1,30.11,SSW,202,2.9,3.1,72,0.00,,,0.00,WUHU21623XXSP,2013-10-09 15:17:00,
2013-10-09 11:22:00,60.6,50.9,30.11,SSW,211,2.5,5.6,70,0.00,,,0.00,WUHU21623XXSP,2013-10-09 15:22:00,
2013-10-09 11:27:00,61.3,51.6,30.11,ESE,113,0.8,5.6,70,0.00,,,0.00,WUHU21623XXSP,2013-10-09 15:27:00,
2013-10-09 11:32:00,62.1,52.1,30.11,South,188,2.3,3.6,69,0.00,,,0.00,WUHU21623XXSP,2013-10-09 15:32:00,
2013-10-09 11:37:00,62.4,50.9,30.11,South,175,2.3,4.5,66,0.00,,,0.00,WUHU21623XXSP,2013-10-09 15:37:00,
2013-10-09 11:42:00,63.1,51.1,30.10,SW,218,3.7,5.8,65,0.00,,,0.00,WUHU21623XXSP,2013-10-09 15:42:00,
2013-10-09 11:47:00,63.7,51.2,30.11,South,173,1.2,6.7,64,0.00,,,0.00,WUHU21623XXSP,2013-10-09 15:47:00,
2013-10-09 11:52:00,64.2,51.3,30.11,SSE,149,1.7,6.7,63,0.00,,,0.00,WUHU21623XXSP,2013-10-09 15:52:00,
2013-10-09 11:57:00,64.9,51.6,30.10,South,185,1.5,6.3,62,0.00,,,0.00,WUHU21623XXSP,2013-10-09 15:57:00,
2013-10-09 12:02:00,65.5,51.3,30.11,South,185,2.3,6.3,60,0.00,,,0.00,WUHU21623XXSP,2013-10-09 16:02:00,
2013-10-09 12:07:00,66.0,51.8,30.10,NNE,22,1.6,4.9,60,0.00,,,0.00,WUHU21623XXSP,2013-10-09 16:07:00,
2013-10-09 12:12:00,66.4,51.2,30.10,SE,135,0.0,2.9,58,0.00,,,0.00,WUHU21623XXSP,2013-10-09 16:12:00,
2013-10-09 12:17:00,66.7,51.0,30.10,East,98,1.4,5.1,57,0.00,,,0.00,WUHU21623XXSP,2013-10-09 16:17:00,
2013-10-09 12:22:00,66.9,51.2,30.11,ESE,102,1.5,5.1,57,0.00,,,0.00,WUHU21623XXSP,2013-10-09 16:22:00,
2013-10-09 12:27:00,67.3,52.0,30.10,SSW,200,2.1,4.3,58,0.00,,,0.00,WUHU21623XXSP,2013-10-09 16:27:00,
2013-10-09 12:32:00,67.8,52.0,30.10,SSW,194,1.7,4.5,57,0.00,,,0.00,WUHU21623XXSP,2013-10-09 16:32:00,
2013-10-09 12:37:00,68.2,51.3,30.11,SE,135,1.6,4.9,55,0.00,,,0.00,WUHU21623XXSP,2013-10-09 16:37:00,
2013-10-09 12:42:00,68.5,51.7,30.10,ESE,115,1.2,4.9,55,0.00,,,0.00,WUHU21623XXSP,2013-10-09 16:42:00,
2013-10-09 12:47:00,68.7,52.3,30.10,SSW,202,1.6,4.0,56,0.00,,,0.00,WUHU21623XXSP,2013-10-09 16:47:00,
2013-10-09 12:52:00,68.9,51.5,30.10,SSW,196,2.6,6.0,54,0.00,,,0.00,WUHU21623XXSP,2013-10-09 16:52:00,
2013-10-09 12:57:00,69.1,51.2,30.10,SSW,199,1.6,6.0,53,0.00,,,0.00,WUHU21623XXSP,2013-10-09 16:57:00,
2013-10-09 13:02:00,69.1,51.2,30.09,SSW,202,3.6,3.8,53,0.00,,,0.00,WUHU21623XXSP,2013-10-09 17:02:00,
2013-10-09 13:07:00,69.6,51.7,30.09,SSE,166,1.6,3.8,53,0.00,,,0.00,WUHU21623XXSP,2013-10-09 17:07:00,
2013-10-09 13:12:00,70.0,52.0,30.09,NE,45,1.3,3.8,53,0.00,,,0.00,WUHU21623XXSP,2013-10-09 17:12:00,
2013-10-09 13:17:00,70.2,52.2,30.09,SE,143,1.8,5.1,53,0.00,,,0.00,WUHU21623XXSP,2013-10-09 17:17:00,
2013-10-09 13:22:00,70.3,52.4,30.08,NW,315,1.1,5.1,53,0.00,,,0.00,WUHU21623XXSP,2013-10-09 17:22:00,
2013-10-09 13:27:00,70.3,51.9,30.08,SSW,206,2.3,9.6,52,0.00,,,0.00,WUHU21623XXSP,2013-10-09 17:27:00,
2013-10-09 13:32:00,70.5,52.5,30.08,SW,227,1.9,9.6,53,0.00,,,0.00,WUHU21623XXSP,2013-10-09 17:32:00,
2013-10-09 13:37:00,70.9,52.3,30.08,South,177,1.1,4.0,52,0.00,,,0.00,WUHU21623XXSP,2013-10-09 17:37:00,
2013-10-09 13:42:00,71.2,51.7,30.08,South,169,2.1,3.8,50,0.00,,,0.00,WUHU21623XXSP,2013-10-09 17:42:00,
2013-10-09 13:47:00,71.4,51.8,30.07,ESE,120,0.9,3.1,50,0.00,,,0.00,WUHU21623XXSP,2013-10-09 17:47:00,
2013-10-09 13:53:00,71.4,51.2,30.07,North,3,1.1,2.9,49,0.00,,,0.00,WUHU21623XXSP,2013-10-09 17:53:00,
2013-10-09 13:57:00,71.8,51.5,30.07,WNW,299,1.3,2.5,49,0.00,,,0.00,WUHU21623XXSP,2013-10-09 17:57:00,
2013-10-09 14:02:00,71.8,51.5,30.07,NE,34,1.1,2.5,49,0.00,,,0.00,WUHU21623XXSP,2013-10-09 18:02:00,
2013-10-09 14:07:00,71.8,52.1,30.07,South,187,0.9,2.2,50,0.00,,,0.00,WUHU21623XXSP,2013-10-09 18:07:00,
2013-10-09 14:12:00,72.1,51.9,30.06,NE,48,1.1,2.2,49,0.00,,,0.00,WUHU21623XXSP,2013-10-09 18:12:00,
2013-10-09 14:17:00,72.1,51.9,30.06,NE,45,0.0,1.8,49,0.00,,,0.00,WUHU21623XXSP,2013-10-09 18:17:00,
2013-10-09 14:22:00,72.1,50.7,30.06,SW,227,3.7,6.9,47,0.00,,,0.00,WUHU21623XXSP,2013-10-09 18:22:00,
2013-10-09 14:27:00,72.1,51.9,30.06,ESE,106,0.9,6.9,49,0.00,,,0.00,WUHU21623XXSP,2013-10-09 18:27:00,
2013-10-09 14:32:00,72.1,51.9,30.05,West,270,0.0,2.0,49,0.00,,,0.00,WUHU21623XXSP,2013-10-09 18:32:00,
2013-10-09 14:37:00,72.1,51.3,30.05,South,180,1.5,2.2,48,0.00,,,0.00,WUHU21623XXSP,2013-10-09 18:37:00,
2013-10-09 14:43:00,72.3,50.8,30.05,East,90,0.9,6.7,47,0.00,,,0.00,WUHU21623XXSP,2013-10-09 18:43:00,
2013-10-09 14:48:00,72.5,51.0,30.05,SW,225,0.0,6.7,47,0.00,,,0.00,WUHU21623XXSP,2013-10-09 18:48:00,
2013-10-09 14:53:00,72.9,51.3,30.05,SSW,204,1.5,3.6,47,0.00,,,0.00,WUHU21623XXSP,2013-10-09 18:53:00,
2013-10-09 14:58:00,73.0,50.9,30.05,NW,326,1.3,3.1,46,0.00,,,0.00,WUHU21623XXSP,2013-10-09 18:58:00,
2013-10-09 15:03:00,72.7,50.6,30.04,NW,315,0.9,1.6,46,0.00,,,0.00,WUHU21623XXSP,2013-10-09 19:03:00,
2013-10-09 15:08:00,72.7,50.6,30.04,NNW,337,0.8,0.9,46,0.00,,,0.00,WUHU21623XXSP,2013-10-09 19:08:00,
2013-10-09 15:13:00,72.7,51.2,30.04,SSW,207,1.2,2.0,47,0.00,,,0.00,WUHU21623XXSP,2013-10-09 19:13:00,
2013-10-09 15:18:00,72.7,51.2,30.04,ENE,67,0.9,2.0,47,0.00,,,0.00,WUHU21623XXSP,2013-10-09 19:18:00,
2013-10-09 15:23:00,72.7,50.6,30.04,West,270,0.7,2.7,46,0.00,,,0.00,WUHU21623XXSP,2013-10-09 19:23:00,
2013-10-09 15:28:00,72.5,50.4,30.04,NNW,343,1.0,2.7,46,0.00,,,0.00,WUHU21623XXSP,2013-10-09 19:28:00,
2013-10-09 15:33:00,72.3,50.3,30.04,NNE,22,1.1,2.2,46,0.00,,,0.00,WUHU21623XXSP,2013-10-09 19:33:00,
2013-10-09 15:38:00,72.1,50.7,30.04,South,179,1.5,5.1,47,0.00,,,0.00,WUHU21623XXSP,2013-10-09 19:38:00,
2013-10-09 15:43:00,72.1,50.1,30.03,NW,315,1.1,5.1,46,0.00,,,0.00,WUHU21623XXSP,2013-10-09 19:43:00,
2013-10-09 15:48:00,72.0,49.9,30.04,NW,315,0.0,1.6,46,0.00,,,0.00,WUHU21623XXSP,2013-10-09 19:48:00,
2013-10-09 15:53:00,71.8,49.8,30.03,SSW,209,2.0,4.0,46,0.00,,,0.00,WUHU21623XXSP,2013-10-09 19:53:00,
2013-10-09 15:58:00,71.8,49.8,30.03,NNE,33,1.2,4.0,46,0.00,,,0.00,WUHU21623XXSP,2013-10-09 19:58:00,
2013-10-09 16:03:00,71.6,49.6,30.03,North,0,0.0,2.0,46,0.00,,,0.00,WUHU21623XXSP,2013-10-09 20:03:00,
2013-10-09 16:08:00,71.4,49.4,30.03,NW,315,0.0,1.6,46,0.00,,,0.00,WUHU21623XXSP,2013-10-09 20:08:00,
2013-10-09 16:13:00,71.2,49.3,30.03,SE,135,2.5,2.5,46,0.00,,,0.00,WUHU21623XXSP,2013-10-09 20:13:00,
2013-10-09 16:18:00,71.2,49.3,30.03,NNE,22,1.3,2.5,46,0.00,,,0.00,WUHU21623XXSP,2013-10-09 20:18:00,
2013-10-09 16:23:00,70.9,49.0,30.03,NW,315,0.9,2.2,46,0.00,,,0.00,WUHU21623XXSP,2013-10-09 20:23:00,
2013-10-09 16:27:00,70.9,49.5,30.02,NNE,22,0.0,2.2,47,0.00,,,0.00,WUHU21623XXSP,2013-10-09 20:27:00,
2013-10-09 16:32:00,70.7,49.4,30.02,NNE,22,0.0,1.1,47,0.00,,,0.00,WUHU21623XXSP,2013-10-09 20:32:00,
2013-10-09 16:37:00,70.7,49.4,30.02,NE,45,0.0,1.1,47,0.00,,,0.00,WUHU21623XXSP,2013-10-09 20:37:00,
2013-10-09 16:42:00,70.5,48.6,30.02,ESE,112,2.2,2.2,46,0.00,,,0.00,WUHU21623XXSP,2013-10-09 20:42:00,
2013-10-09 16:48:00,70.5,49.8,30.02,WNW,292,0.7,3.1,48,0.00,,,0.00,WUHU21623XXSP,2013-10-09 20:48:00,
2013-10-09 16:53:00,70.3,49.7,30.02,NW,315,0.0,3.1,48,0.00,,,0.00,WUHU21623XXSP,2013-10-09 20:53:00,
2013-10-09 16:57:00,70.3,49.7,30.02,North,0,0.0,1.1,48,0.00,,,0.00,WUHU21623XXSP,2013-10-09 20:57:00,
2013-10-09 17:02:00,70.2,49.5,30.02,North,0,0.0,1.1,48,0.00,,,0.00,WUHU21623XXSP,2013-10-09 21:02:00,
2013-10-09 17:07:00,70.0,49.3,30.02,North,0,0.0,2.7,48,0.00,,,0.00,WUHU21623XXSP,2013-10-09 21:07:00,
2013-10-09 17:12:00,70.0,48.7,30.02,SSW,202,1.3,2.7,46,0.00,,,0.00,WUHU21623XXSP,2013-10-09 21:12:00,
2013-10-09 17:18:00,70.0,49.3,30.01,NNW,337,0.0,2.0,48,0.00,,,0.00,WUHU21623XXSP,2013-10-09 21:18:00,
2013-10-09 17:23:00,70.0,48.1,30.01,SSW,201,3.0,7.8,46,0.00,,,0.00,WUHU21623XXSP,2013-10-09 21:23:00,
2013-10-09 17:27:00,69.8,48.6,30.01,NE,45,0.0,7.8,47,0.00,,,0.00,WUHU21623XXSP,2013-10-09 21:27:00,
2013-10-09 17:32:00,69.8,48.6,30.01,NE,45,0.9,1.6,47,0.00,,,0.00,WUHU21623XXSP,2013-10-09 21:32:00,
2013-10-09 17:37:00,69.6,47.8,30.01,SW,219,1.0,1.6,46,0.00,,,0.00,WUHU21623XXSP,2013-10-09 21:37:00,
2013-10-09 17:42:00,69.6,49.0,30.01,SE,135,0.0,1.8,48,0.00,,,0.00,WUHU21623XXSP,2013-10-09 21:42:00,
2013-10-09 17:47:00,69.6,48.4,30.00,SSE,157,0.9,2.0,47,0.00,,,0.00,WUHU21623XXSP,2013-10-09 21:47:00,
2013-10-09 17:52:00,69.4,48.3,30.01,WSW,247,1.6,4.5,47,0.00,,,0.00,WUHU21623XXSP,2013-10-09 21:52:00,
2013-10-09 17:57:00,69.4,48.8,30.00,North,11,1.0,4.5,48,0.00,,,0.00,WUHU21623XXSP,2013-10-09 21:57:00,
2013-10-09 18:02:00,69.1,48.5,30.00,SE,135,0.0,1.3,48,0.00,,,0.00,WUHU21623XXSP,2013-10-09 22:02:00,
2013-10-09 18:07:00,69.1,48.5,30.00,SW,225,0.0,2.2,48,0.00,,,0.00,WUHU21623XXSP,2013-10-09 22:07:00,
2013-10-09 18:12:00,68.7,48.8,30.00,ENE,67,0.0,2.2,49,0.00,,,0.00,WUHU21623XXSP,2013-10-09 22:12:00,
2013-10-09 18:17:00,68.5,49.2,30.00,South,180,0.0,0.0,50,0.00,,,0.00,WUHU21623XXSP,2013-10-09 22:17:00,
2013-10-09 18:22:00,68.2,49.4,30.00,NE,45,0.0,0.0,51,0.00,,,0.00,WUHU21623XXSP,2013-10-09 22:22:00,
2013-10-09 18:27:00,67.8,49.5,30.00,NE,45,0.0,0.0,52,0.00,,,0.00,WUHU21623XXSP,2013-10-09 22:27:00,
2013-10-09 18:32:00,67.5,50.2,30.00,NE,45,0.0,0.0,54,0.00,,,0.00,WUHU21623XXSP,2013-10-09 22:32:00,
2013-10-09 18:37:00,66.9,50.2,30.00,NE,45,0.0,0.0,55,0.00,,,0.00,WUHU21623XXSP,2013-10-09 22:37:00,
2013-10-09 18:42:00,66.6,50.4,30.00,NE,45,0.0,0.0,56,0.00,,,0.00,WUHU21623XXSP,2013-10-09 22:42:00,
2013-10-09 18:48:00,66.0,50.8,30.00,NE,45,0.0,0.0,58,0.00,,,0.00,WUHU21623XXSP,2013-10-09 22:48:00,
2013-10-09 18:54:00,65.5,50.8,30.01,NE,45,0.0,0.0,59,0.00,,,0.00,WUHU21623XXSP,2013-10-09 22:54:00,
2013-10-09 18:59:00,65.1,50.9,30.00,NE,45,0.0,0.0,60,0.00,,,0.00,WUHU21623XXSP,2013-10-09 22:59:00,
2013-10-09 19:04:00,64.6,50.4,30.01,NE,45,0.0,0.0,60,0.00,,,0.00,WUHU21623XXSP,2013-10-09 23:04:00,
2013-10-09 19:09:00,64.0,50.3,30.00,NE,45,0.0,0.0,61,0.00,,,0.00,WUHU21623XXSP,2013-10-09 23:09:00,
2013-10-09 19:14:00,63.5,50.2,30.00,NE,45,0.0,0.0,62,0.00,,,0.00,WUHU21623XXSP,2013-10-09 23:14:00,
2013-10-09 19:19:00,63.1,49.9,30.00,NE,45,0.0,0.0,62,0.00,,,0.00,WUHU21623XXSP,2013-10-09 23:19:00,
2013-10-09 19:24:00,62.4,49.6,30.01,NE,45,0.0,0.0,63,0.00,,,0.00,WUHU21623XXSP,2013-10-09 23:24:00,
2013-10-09 19:29:00,61.9,49.6,30.01,NE,45,0.0,0.0,64,0.00,,,0.00,WUHU21623XXSP,2013-10-09 23:29:00,
2013-10-09 19:34:00,61.3,49.5,30.01,NE,45,0.0,0.0,65,0.00,,,0.00,WUHU21623XXSP,2013-10-09 23:34:00,
2013-10-09 19:39:00,61.0,49.6,30.01,NE,45,0.0,0.0,66,0.00,,,0.00,WUHU21623XXSP,2013-10-09 23:39:00,
2013-10-09 19:44:00,60.4,49.1,30.00,NE,45,0.0,0.0,66,0.00,,,0.00,WUHU21623XXSP,2013-10-09 23:44:00,
2013-10-09 19:49:00,59.7,48.8,30.00,ENE,67,0.0,0.0,67,0.00,,,0.00,WUHU21623XXSP,2013-10-09 23:49:00,
2013-10-09 19:54:00,59.2,48.6,30.00,East,90,0.0,0.0,68,0.00,,,0.00,WUHU21623XXSP,2013-10-09 23:54:00,
2013-10-09 19:59:00,58.8,48.3,30.00,East,90,0.0,0.0,68,0.00,,,0.00,WUHU21623XXSP,2013-10-09 23:59:00,
2013-10-09 20:04:00,58.5,47.9,30.00,East,90,0.0,0.0,68,0.00,,,0.00,WUHU21623XXSP,2013-10-10 00:04:00,
2013-10-09 20:09:00,57.9,47.4,30.00,East,90,0.0,0.0,68,0.00,,,0.00,WUHU21623XXSP,2013-10-10 00:09:00,
2013-10-09 20:14:00,57.4,46.9,30.00,East,90,0.0,0.0,68,0.00,,,0.00,WUHU21623XXSP,2013-10-10 00:14:00,
2013-10-09 20:19:00,57.0,46.9,30.00,East,90,0.0,0.0,69,0.00,,,0.00,WUHU21623XXSP,2013-10-10 00:19:00,
2013-10-09 20:24:00,56.7,47.0,30.00,East,90,0.0,0.0,70,0.00,,,0.00,WUHU21623XXSP,2013-10-10 00:24:00,
2013-10-09 20:29:00,56.3,46.7,30.01,East,90,0.0,0.0,70,0.00,,,0.00,WUHU21623XXSP,2013-10-10 00:29:00,
2013-10-09 20:34:00,56.1,46.9,30.01,East,90,0.0,0.0,71,0.00,,,0.00,WUHU21623XXSP,2013-10-10 00:34:00,
2013-10-09 20:38:00,55.8,46.9,30.01,East,90,0.0,0.0,72,0.00,,,0.00,WUHU21623XXSP,2013-10-10 00:38:00,
2013-10-09 20:43:00,55.6,46.7,30.01,East,90,0.0,0.0,72,0.00,,,0.00,WUHU21623XXSP,2013-10-10 00:43:00,
2013-10-09 20:48:00,55.2,46.4,30.01,East,90,0.0,0.0,72,0.00,,,0.00,WUHU21623XXSP,2013-10-10 00:48:00,
2013-10-09 20:53:00,55.0,46.5,30.01,East,90,0.0,0.0,73,0.00,,,0.00,WUHU21623XXSP,2013-10-10 00:53:00,
2013-10-09 20:58:00,54.7,46.5,30.01,ESE,112,0.0,0.0,74,0.00,,,0.00,WUHU21623XXSP,2013-10-10 00:58:00,
2013-10-09 21:03:00,54.5,46.4,30.01,ESE,112,0.0,0.0,74,0.00,,,0.00,WUHU21623XXSP,2013-10-10 01:03:00,
2013-10-09 21:08:00,54.3,46.5,30.00,SE,135,0.0,0.0,75,0.00,,,0.00,WUHU21623XXSP,2013-10-10 01:08:00,
2013-10-09 21:13:00,54.1,46.4,30.00,ESE,112,0.0,0.0,75,0.00,,,0.00,WUHU21623XXSP,2013-10-10 01:13:00,
2013-10-09 21:18:00,54.0,46.2,30.00,ESE,112,0.0,0.0,75,0.00,,,0.00,WUHU21623XXSP,2013-10-10 01:18:00,
2013-10-09 21:23:00,53.4,45.7,30.00,East,90,0.0,0.0,75,0.00,,,0.00,WUHU21623XXSP,2013-10-10 01:23:00,
2013-10-09 21:28:00,53.2,45.9,30.00,East,90,0.0,0.0,76,0.00,,,0.00,WUHU21623XXSP,2013-10-10 01:28:00,
2013-10-09 21:33:00,52.9,45.5,30.00,East,90,0.0,0.0,76,0.00,,,0.00,WUHU21623XXSP,2013-10-10 01:33:00,
2013-10-09 21:38:00,52.7,45.7,30.00,East,90,0.0,0.0,77,0.00,,,0.00,WUHU21623XXSP,2013-10-10 01:38:00,
2013-10-09 21:43:00,52.5,45.9,30.01,East,90,0.0,0.0,78,0.00,,,0.00,WUHU21623XXSP,2013-10-10 01:43:00,
2013-10-09 21:48:00,52.3,45.9,30.01,East,90,0.0,0.0,78,0.00,,,0.00,WUHU21623XXSP,2013-10-10 01:48:00,
2013-10-09 21:53:00,52.3,45.4,30.02,East,90,0.0,0.0,77,0.00,,,0.00,WUHU21623XXSP,2013-10-10 01:53:00,
2013-10-09 21:58:00,52.2,45.5,30.02,East,90,0.0,0.0,78,0.00,,,0.00,WUHU21623XXSP,2013-10-10 01:58:00,
2013-10-09 22:03:00,52.0,45.5,30.02,East,90,0.0,0.0,78,0.00,,,0.00,WUHU21623XXSP,2013-10-10 02:03:00,
2013-10-09 22:08:00,52.0,45.3,30.02,East,90,0.0,0.0,78,0.00,,,0.00,WUHU21623XXSP,2013-10-10 02:08:00,
2013-10-09 22:13:00,51.8,45.2,30.02,East,90,0.0,0.0,78,0.00,,,0.00,WUHU21623XXSP,2013-10-10 02:13:00,
2013-10-09 22:18:00,51.6,45.0,30.02,East,90,0.0,0.0,78,0.00,,,0.00,WUHU21623XXSP,2013-10-10 02:18:00,
2013-10-09 22:23:00,51.4,44.8,30.02,East,90,0.0,0.0,78,0.00,,,0.00,WUHU21623XXSP,2013-10-10 02:23:00,
2013-10-09 22:28:00,51.1,44.5,30.02,East,90,0.0,0.0,78,0.00,,,0.00,WUHU21623XXSP,2013-10-10 02:28:00,
2013-10-09 22:33:00,50.9,44.6,30.02,East,90,0.0,0.0,79,0.00,,,0.00,WUHU21623XXSP,2013-10-10 02:33:00,
2013-10-09 22:38:00,50.7,44.4,30.02,East,90,0.0,0.0,79,0.00,,,0.00,WUHU21623XXSP,2013-10-10 02:38:00,
2013-10-09 22:43:00,50.5,44.3,30.02,East,90,0.0,0.0,79,0.00,,,0.00,WUHU21623XXSP,2013-10-10 02:43:00,
2013-10-09 22:48:00,50.5,44.6,30.02,East,90,0.0,0.0,80,0.00,,,0.00,WUHU21623XXSP,2013-10-10 02:48:00,
2013-10-09 22:53:00,50.4,44.4,30.02,East,90,0.0,0.0,80,0.00,,,0.00,WUHU21623XXSP,2013-10-10 02:53:00,
2013-10-09 22:58:00,50.2,43.9,30.03,East,90,0.0,0.0,79,0.00,,,0.00,WUHU21623XXSP,2013-10-10 02:58:00,
2013-10-09 23:03:00,49.8,43.9,30.03,East,90,0.0,0.0,80,0.00,,,0.00,WUHU21623XXSP,2013-10-10 03:03:00,
2013-10-09 23:08:00,49.8,43.9,30.03,East,90,0.0,0.0,80,0.00,,,0.00,WUHU21623XXSP,2013-10-10 03:08:00,
2013-10-09 23:13:00,49.8,43.9,30.03,East,90,0.0,0.0,80,0.00,,,0.00,WUHU21623XXSP,2013-10-10 03:13:00,
2013-10-09 23:18:00,49.6,43.7,30.02,East,90,0.0,0.0,80,0.00,,,0.00,WUHU21623XXSP,2013-10-10 03:18:00,
2013-10-09 23:23:00,49.6,44.0,30.02,ESE,112,0.0,0.0,81,0.00,,,0.00,WUHU21623XXSP,2013-10-10 03:23:00,
2013-10-09 23:28:00,49.5,43.8,30.02,SE,135,0.0,0.0,81,0.00,,,0.00,WUHU21623XXSP,2013-10-10 03:28:00,
2013-10-09 23:33:00,49.3,43.6,30.02,ESE,112,0.0,0.0,81,0.00,,,0.00,WUHU21623XXSP,2013-10-10 03:33:00,
2013-10-09 23:38:00,49.3,43.6,30.02,East,90,0.0,0.0,81,0.00,,,0.00,WUHU21623XXSP,2013-10-10 03:38:00,
2013-10-09 23:43:00,49.1,43.5,30.02,East,90,0.0,0.0,81,0.00,,,0.00,WUHU21623XXSP,2013-10-10 03:43:00,
2013-10-09 23:48:00,49.1,43.8,30.03,East,90,0.0,0.0,82,0.00,,,0.00,WUHU21623XXSP,2013-10-10 03:48:00,
2013-10-09 23:53:00,49.1,43.8,30.03,East,90,0.0,0.0,82,0.00,,,0.00,WUHU21623XXSP,2013-10-10 03:53:00,
2013-10-09 23:58:00,49.1,43.8,30.03,East,90,0.0,0.0,82,0.00,,,0.00,WUHU21623XXSP,2013-10-10 03:58:00,